W5ZYX Weather Reports


Display with metric or nautical units.
time (UTC)temp
F
wind
direction
speed
MPH
gust
MPH
rain 1hr
in
rain 24hr
in
rain mn
in
humidity
%
barometer
mb
20260502224038 73 360 8.0 15.0 0.00 0.09 0.00 54 1019.2
20260502223541 73 26 9.0 15.0 0.00 0.09 0.00 57 1019.2
20260502223049 73 29 7.0 14.0 0.00 0.09 0.00 55 1019.3
20260502222538 74 41 8.0 14.0 0.00 0.09 0.00 55 1019.3
20260502222039 74 20 8.0 12.0 0.00 0.09 0.00 54 1019.3
20260502221552 73 33 5.0 12.0 0.00 0.09 0.00 58 1019.4
20260502221040 73 5 6.0 14.0 0.00 0.09 0.00 56 1019.4
20260502220536 73 360 7.0 14.0 0.00 0.09 0.00 54 1019.4
20260502220050 74 360 9.0 14.0 0.00 0.09 0.00 54 1019.4
20260502215540 74 350 8.0 11.0 0.00 0.14 0.00 53 1019.4
20260502215041 74 336 5.0 11.0 0.00 0.14 0.00 56 1019.5
20260502214553 74 333 6.0 12.0 0.00 0.14 0.00 54 1019.5
20260502214040 74 355 6.0 12.0 0.00 0.14 0.00 56 1019.5
20260502213536 73 16 4.0 11.0 0.00 0.14 0.00 56 1019.5
20260502213047 73 350 5.0 13.0 0.00 0.14 0.00 56 1019.6
20260502212539 73 9 8.0 13.0 0.00 0.14 0.00 54 1019.6
20260502212039 73 29 7.0 13.0 0.00 0.14 0.00 55 1019.7
20260502211550 73 335 4.0 11.0 0.00 0.14 0.00 55 1019.7
20260502211040 73 61 4.0 13.0 0.00 0.14 0.00 59 1019.7
20260502210535 73 36 8.0 14.0 0.00 0.14 0.00 55 1019.8
20260502210050 73 42 7.0 14.0 0.00 0.14 0.00 55 1019.7
20260502205540 73 350 9.0 14.0 0.00 0.16 0.00 52 1019.9
20260502205038 73 13 1.0 14.0 0.00 0.16 0.00 54 1019.8
20260502204549 72 344 6.0 15.0 0.00 0.16 0.00 54 1019.9
20260502204039 72 13 8.0 15.0 0.00 0.16 0.00 55 1019.9
20260502203537 72 53 7.0 15.0 0.00 0.16 0.00 55 1020.1
20260502203108 72 45 10.0 15.0 0.00 0.16 0.00 56 1020.1
20260502202540 73 5 6.0 16.0 0.00 0.16 0.00 56 1020.1
20260502202039 72 15 6.0 16.0 0.00 0.16 0.00 57 1020.1
20260502201547 72 5 5.0 13.0 0.00 0.16 0.00 60 1020.2
20260502201040 72 9 9.0 13.0 0.00 0.16 0.00 58 1020.4
20260502200536 72 34 7.0 12.0 0.00 0.16 0.00 59 1020.4
20260502200046 72 37 5.0 12.0 0.00 0.16 0.00 59 1020.3
20260502195538 72 36 5.0 12.0 0.00 0.20 0.00 57 1020.3
20260502195039 72 10 6.0 15.0 0.00 0.20 0.00 60 1020.4
20260502194550 71 62 6.0 15.0 0.00 0.20 0.00 59 1020.5
20260502194038 71 54 8.0 13.0 0.00 0.20 0.00 60 1020.4
20260502193539 71 360 5.0 9.0 0.00 0.20 0.00 60 1020.5
20260502193048 71 302 2.0 12.0 0.00 0.20 0.00 60 1020.6
20260502192539 71 5 7.0 12.0 0.00 0.20 0.00 57 1020.8
20260502192039 71 5 8.0 13.0 0.00 0.20 0.00 59 1020.7
20260502191556 71 57 7.0 13.0 0.00 0.20 0.00 57 1020.7
20260502191039 70 5 2.0 15.0 0.00 0.20 0.00 63 1020.8
20260502190539 70 20 9.0 15.0 0.00 0.20 0.00 59 1021.0
20260502190050 71 43 10.0 15.0 0.00 0.20 0.00 59 1021.0
20260502185539 71 36 8.0 15.0 0.00 0.20 0.00 63 1021.0
20260502185036 71 360 6.0 12.0 0.00 0.20 0.00 63 1021.1
20260502184549 70 341 5.0 15.0 0.00 0.20 0.00 64 1021.1
20260502184037 70 294 6.0 15.0 0.00 0.20 0.00 64 1021.3
20260502183539 70 17 7.0 15.0 0.00 0.20 0.00 64 1021.3
20260502183053 70 334 5.0 12.0 0.00 0.20 0.00 67 1021.3
20260502182537 70 9 7.0 16.0 0.00 0.20 0.00 63 1021.4
20260502182036 70 13 7.0 16.0 0.00 0.20 0.00 65 1021.5
20260502181607 69 40 11.0 16.0 0.00 0.20 0.00 65 1021.7
20260502181041 69 343 5.0 14.0 0.00 0.20 0.00 67 1021.7
20260502180537 69 355 7.0 14.0 0.00 0.20 0.00 65 1021.8
20260502164039 66 360 6.0 13.0 0.00 0.27 0.00 70 1022.6
20260502163539 66 82 5.0 11.0 0.00 0.27 0.00 72 1022.5
20260502163051 66 5 7.0 11.0 0.00 0.27 0.00 71 1022.5
20260502162536 66 321 5.0 11.0 0.00 0.27 0.00 71 1022.5
20260502162038 66 329 5.0 10.0 0.00 0.27 0.00 71 1022.5
20260502161549 66 26 5.0 9.0 0.00 0.27 0.00 72 1022.5
20260502161036 65 13 4.0 11.0 0.00 0.27 0.00 75 1022.5
20260502160538 65 346 7.0 12.0 0.00 0.27 0.00 74 1022.6
20260502152037 63 360 6.0 12.0 0.00 0.34 0.00 81 1022.5
20260502151602 63 344 4.0 11.0 0.00 0.34 0.00 81 1022.5
20260502151039 63 10 7.0 11.0 0.00 0.34 0.00 81 1022.5
20260502150536 62 315 8.0 11.0 0.00 0.34 0.00 81 1022.4
20260502130540 54 360 5.0 8.0 0.00 0.58 0.00 94 1021.1
20260502123536 51 344 3.0 6.0 0.00 0.69 0.00 95 1020.7
20260502123047 51 334 4.0 6.0 0.00 0.69 0.00 95 1020.6
20260502122539 51 327 3.0 5.0 0.00 0.69 0.00 94 1020.5
20260502122036 50 325 3.0 5.0 0.00 0.69 0.00 95 1020.4
20260502121554 50 336 2.0 4.0 0.00 0.69 0.00 94 1020.3
20260502121037 50 336 1.0 4.0 0.00 0.69 0.00 94 1020.2
20260502120538 50 336 2.0 4.0 0.00 0.69 0.00 94 1020.1
20260502115539 50 336 2.0 4.0 0.00 0.76 0.00 94 1020.0
20260502115041 50 336 3.0 5.0 0.00 0.76 0.00 94 1019.9
20260502114555 50 336 3.0 5.0 0.00 0.76 0.00 94 1019.8
20260502114040 50 355 3.0 5.0 0.00 0.76 0.00 94 1019.8
20260502113539 50 355 3.0 4.0 0.00 0.76 0.00 94 1019.7
20260502113054 50 355 2.0 3.0 0.00 0.76 0.00 94 1019.6
20260502112540 50 355 2.0 5.0 0.00 0.76 0.00 94 1019.5
20260502112036 50 355 2.0 5.0 0.00 0.76 0.00 94 1019.4
20260502111547 50 355 2.0 5.0 0.00 0.76 0.00 94 1019.4
20260502111039 50 355 3.0 4.0 0.00 0.76 0.00 94 1019.4
20260502110539 50 355 2.0 4.0 0.00 0.76 0.00 94 1019.3
20260502110056 50 355 2.0 4.0 0.00 0.76 0.00 94 1019.2
20260502105536 50 355 2.0 4.0 0.00 0.83 0.00 94 1019.2
20260502105036 50 355 2.0 4.0 0.00 0.83 0.00 94 1019.2
20260502104552 50 355 2.0 4.0 0.00 0.83 0.00 94 1019.2
20260502104036 50 355 1.0 4.0 0.00 0.83 0.00 94 1019.2
20260502103541 50 355 2.0 4.0 0.00 0.83 0.00 94 1019.2
20260502103053 50 355 3.0 4.0 0.00 0.83 0.00 94 1019.2
20260502102540 50 355 2.0 4.0 0.00 0.83 0.00 94 1019.2
20260502102039 50 355 2.0 4.0 0.00 0.83 0.00 94 1019.1
20260502101550 50 355 1.0 3.0 0.00 0.83 0.00 94 1018.9
20260502101039 50 355 1.0 3.0 0.00 0.83 0.00 93 1018.9
20260502100539 50 355 1.0 5.0 0.00 0.83 0.00 93 1018.8
20260502091040 51 342 2.0 6.0 0.00 0.88 0.00 94 1018.5
20260502090541 51 342 3.0 6.0 0.00 0.88 0.00 94 1018.4
20260502071036 52 360 3.0 8.0 0.00 0.94 0.00 93 1017.8
20260502070537 52 333 4.0 8.0 0.00 0.94 0.00 93 1017.8
20260502070052 52 327 4.0 6.0 0.00 0.94 0.00 93 1017.9
20260502065537 52 342 3.0 6.0 0.00 0.94 0.00 93 1017.9
20260502065041 52 329 3.0 4.0 0.00 0.94 0.00 93 1017.9
20260502064558 51 351 2.0 4.0 0.00 0.94 0.00 93 1017.9
20260502064040 52 351 2.0 4.0 0.00 0.94 0.00 93 1017.9
20260502063539 52 351 2.0 4.0 0.00 0.94 0.00 92 1018.1
20260502063055 52 351 1.0 3.0 0.00 0.94 0.00 92 1017.9
20260502062540 52 351 2.0 3.0 0.00 0.94 0.00 92 1018.1
20260502062040 52 351 0.0 4.0 0.00 0.94 0.00 92 1018.0
20260502061550 52 351 1.0 4.0 0.00 0.94 0.00 92 1018.1
20260502061040 52 351 2.0 4.0 0.00 0.94 0.00 92 1018.1
20260502060540 52 351 2.0 5.0 0.00 0.94 0.00 92 1018.2
20260502060054 52 351 2.0 7.0 0.00 0.94 0.00 92 1018.1
20260502055540 53 351 3.0 9.0 0.00 0.95 0.00 92 1018.1
20260502055039 53 32 3.0 10.0 0.00 0.95 0.00 92 1018.1
20260502054556 53 32 6.0 10.0 0.00 0.95 0.00 92 1018.0
20260502054040 53 11 1.0 8.0 0.00 0.95 0.00 92 1017.6
20260502053539 53 96 3.0 8.0 0.00 0.95 0.00 92 1017.8
20260502053057 53 31 3.0 8.0 0.00 0.95 0.00 93 1017.8
20260502052540 53 67 2.0 6.0 0.00 0.95 0.00 93 1017.7
20260502052042 53 40 3.0 5.0 0.00 0.95 0.00 93 1017.7
20260502051557 53 40 3.0 6.0 0.00 0.95 0.00 93 1018.0
20260502051040 53 40 3.0 6.0 0.00 0.95 0.00 93 1018.0
20260502050541 53 40 3.0 8.0 0.00 0.95 0.00 93 1017.8
20260502050056 53 44 4.0 8.0 0.00 0.95 0.00 93 1017.9
20260502045540 53 22 4.0 8.0 0.00 0.98 0.95 93 1018.0
20260502045040 53 23 4.0 9.0 0.00 0.98 0.95 93 1018.0
20260502044548 53 45 5.0 9.0 0.00 0.98 0.95 93 1018.0
20260502044038 53 42 2.0 7.0 0.00 0.98 0.95 93 1017.9
20260502043538 53 43 2.0 8.0 0.00 0.98 0.95 93 1017.8
20260502043055 53 42 3.0 8.0 0.00 0.98 0.95 93 1017.8
20260502042537 52 43 4.0 7.0 0.00 0.98 0.95 93 1017.9
20260502042041 52 12 4.0 7.0 0.00 0.98 0.95 93 1017.9
20260502041550 52 26 3.0 5.0 0.00 0.98 0.95 93 1017.9
20260502041040 52 5 3.0 6.0 0.00 0.98 0.95 93 1017.9
20260502040540 52 39 4.0 8.0 0.00 0.98 0.95 93 1018.0
20260502040105 52 40 3.0 8.0 0.00 0.98 0.95 93 1018.0
20260502035539 52 49 4.0 9.0 0.00 0.98 0.95 93 1018.1
20260502035037 52 44 4.0 9.0 0.00 0.98 0.95 93 1018.2
20260502034554 52 29 3.0 8.0 0.00 0.98 0.95 92 1018.1
20260502034036 52 49 4.0 10.0 0.00 0.98 0.95 92 1018.2
20260502033535 52 22 4.0 11.0 0.00 0.98 0.95 92 1018.1
20260502033049 52 46 5.0 11.0 0.00 0.98 0.95 92 1017.9
20260502032536 52 53 5.0 12.0 0.00 0.98 0.95 92 1017.9
20260502032036 52 42 5.0 13.0 0.00 0.98 0.95 92 1017.9
20260502031550 52 54 7.0 15.0 0.00 0.98 0.95 92 1017.9
20260502031037 52 34 7.0 15.0 0.01 0.98 0.95 92 1017.8
20260502030537 52 28 7.0 17.0 0.01 0.98 0.95 92 1017.7
20260502030054 52 36 10.0 17.0 0.01 0.98 0.95 92 1017.7
20260502025536 52 44 9.0 17.0 0.01 0.98 0.95 92 1017.6
20260502025037 52 32 8.0 17.0 0.01 0.98 0.95 92 1017.4
20260502024551 52 49 9.0 18.0 0.01 0.98 0.95 93 1017.4
20260502024036 52 43 10.0 18.0 0.01 0.98 0.95 93 1017.2
20260502023536 52 38 9.0 15.0 0.01 0.98 0.95 93 1017.2
20260502023054 52 30 9.0 16.0 0.01 0.98 0.95 93 1017.3
20260502022535 52 28 10.0 17.0 0.01 0.98 0.95 93 1017.2
20260502022037 52 26 10.0 17.0 0.01 0.98 0.95 93 1017.1
20260502021547 52 12 7.0 13.0 0.01 0.98 0.95 93 1017.1
20260502021036 52 38 7.0 19.0 0.00 0.97 0.94 93 1017.1
20260502020536 52 19 8.0 19.0 0.00 0.97 0.94 93 1016.7
20260502015536 52 37 11.0 17.0 0.00 0.97 0.94 93 1016.2
20260502015036 52 32 10.0 18.0 0.00 0.97 0.94 93 1016.2
20260502014553 52 360 11.0 18.0 0.00 0.97 0.94 93 1016.3
20260502014037 52 14 13.0 18.0 0.00 0.97 0.94 94 1016.6
20260502013536 53 9 11.0 17.0 0.01 0.97 0.94 94 1016.5
20260502013047 53 15 9.0 15.0 0.01 0.97 0.94 94 1016.2
20260502012536 53 24 9.0 15.0 0.01 0.97 0.94 94 1016.0
20260502012037 53 14 9.0 14.0 0.01 0.97 0.94 94 1016.0
20260502011551 53 36 9.0 14.0 0.01 0.97 0.94 94 1015.9
20260502011038 53 13 10.0 14.0 0.02 0.97 0.94 94 1015.9
20260502010537 53 351 7.0 15.0 0.02 0.97 0.94 94 1015.9
20260502010046 53 16 7.0 15.0 0.02 0.97 0.94 94 1015.7
20260502005537 53 19 10.0 15.0 0.02 0.97 0.94 94 1015.5
20260502005038 54 35 8.0 12.0 0.03 0.97 0.94 94 1015.4
20260502004554 54 16 6.0 12.0 0.03 0.97 0.94 94 1015.8
20260502004037 54 27 7.0 13.0 0.04 0.97 0.94 94 1016.0
20260502003539 53 360 8.0 14.0 0.03 0.96 0.93 94 1016.3
20260502003052 53 23 9.0 14.0 0.03 0.96 0.93 94 1016.3
20260502002536 54 17 8.0 14.0 0.04 0.96 0.93 94 1016.2
20260502002036 54 19 8.0 13.0 0.04 0.96 0.93 94 1016.1
20260502001624 54 43 8.0 15.0 0.04 0.96 0.93 94 1015.9
20260502001039 54 35 9.0 15.0 0.03 0.95 0.92 94 1015.9
20260502000539 54 350 9.0 13.0 0.03 0.95 0.92 94 1015.8
20260502000047 54 12 8.0 13.0 0.03 0.95 0.92 94 1015.9
20260501235539 54 336 5.0 12.0 0.03 0.95 0.92 94 1016.0
20260501235039 54 360 6.0 12.0 0.03 0.94 0.91 94 1015.9
20260501234551 54 11 8.0 13.0 0.04 0.94 0.91 94 1015.7
20260501234037 54 10 9.0 14.0 0.03 0.93 0.90 93 1015.7
20260501233538 54 35 9.0 15.0 0.04 0.93 0.90 93 1015.4
20260501233050 54 37 7.0 15.0 0.04 0.93 0.90 93 1015.6
20260501232536 54 11 9.0 14.0 0.03 0.92 0.89 94 1015.3
20260501232036 54 14 6.0 13.0 0.03 0.92 0.89 94 1014.9
20260501231548 54 28 7.0 15.0 0.03 0.92 0.89 94 1014.7
20260501231036 54 23 7.0 15.0 0.03 0.92 0.89 94 1014.3
20260501230537 54 32 8.0 15.0 0.03 0.92 0.89 94 1014.2
20260501230048 54 5 9.0 15.0 0.03 0.92 0.89 94 1013.7
20260501225536 55 33 8.0 13.0 0.03 0.92 0.89 94 1013.7
20260501225036 55 36 7.0 16.0 0.03 0.91 0.88 94 1014.0
20260501224556 55 34 9.0 16.0 0.02 0.90 0.87 94 1014.0